User: anonymous
Location: Unspecified
(0.0000°N, 0.0000°E)
Time: 02:18:13
(UTC+00:00)
Language:

CUTE 1.7 & AOD 2 - Orbit

View from above orbital plane
View from above orbital plane
View from above satellite
View from above satellite

Ground track
Ground track

The orbit data is extracted from the following two-line orbital elements,

1 32785U 08021C   14204.14326223  .00000371  00000-0  49022-4 0    83
2 32785 097.6967 254.2555 0015024 074.7733 017.7060 14.85393232337365
Epoch (UTC): 23 July 2014 03:26:17
Eccentricity: 0.0015024
inclination: 97.6967°
perigee height: 602 km
apogee height: 623 km
right ascension of ascending node: 254.2555°
argument of perigee: 74.7733°
revolutions per day: 14.85393232
mean anomaly at epoch: 17.7060°
orbit number at epoch: 33736

The dashed part of the orbit path shows where the satellite is in the earth's shadow,  

DLR